Other Public Products
Issued by NWS Charleston, SC

Current Version | Previous Version | Graphics & Text | Print | Product List | Glossary On
Versions: 1 2 3 4 5 6 7 8 9 10 11 12 13 14 15 16 17 18 19 20 21 22 23 24 25 26 27 28 29 30 31 32 33 34 35 36 37 38 39 40 41 42 43 44 45 46 47 48 49 50
000
FPUS82 KCHS 280712
OPUCHS

TEST...KCHS/KSAV Gateway Observations...TEST
National Weather Service Charleston SC
300 AM EDT FRI JUL 28 2017

NOTE: "fair" indicates few or no clouds below 12,000 feet with no
significant weather and/or obstructions to visibility.

SCZ050-WAZ558-NCZ071-TXZ119-213-PAZ071-DCZ001-FLZ074-172-MI076-
NYZ176-178-MAZ016-IL014-TNZ027-NJZ106-GAZ044-MD014-280800-

...Gateway Observations for Charleston International...

CITY           SKY/WX    TMP DP  RH WIND       PRES   REMARKS
Chas Airport   PTCLDY    77  74  90 S3        29.90F
Seattle        CLEAR     61  54  77 N8        30.10S
Charlotte      CLOUDY    76  72  87 CALM      29.91F
Dallas DFW     PTCLDY    87  70  56 S12       29.89S HX  92
Dallas Love    PTCLDY    88  69  53 S8        29.89F HX  92
Philladelphia  PTCLDY    72  70  93 CALM      29.83F
Wash National  PTCLDY    79  74  84 NW8       29.82F
Baltimore      MOCLDY    75  72  90 CALM      29.81F
Miami          PTCLDY    83  75  77 CALM      29.96F HX  90
Detroit        MOCLDY    66  60  81 N6        29.94S
Newark         CLOUDY    73  69  87 CALM      29.85S
Laguardia      MOCLDY    74  70  87 S5        29.84F
J F K          MOCLDY    73  72  94 SW3       29.86F
Boston Logan   PTCLDY    68  66  93 W9        29.83S
Ft. Lauderdale PTCLDY    82  76  81 CALM      29.94F
Chicago O`Hare PTCLDY    70  61  73 N12       29.94S
Chicago Midway MOCLDY    72  65  78 N12       29.93S
Houston Bush   PTCLDY    81  75  82 S7        29.96S
Houston Hobby  PTCLDY    81  75  82 S5        29.96S
Nashville      CLOUDY    76  72  87 W6        29.89F
Atlanta        MOCLDY    74  72  93 S5        29.95F

$$

GAZ044-118-TXZ119-213-NCZ071-DCZ001-MDZ014-506-PAZ021-071-NJZ106-
NYZ176-178-MAZ106-OHZ011-021-055-MIZ076-KYZ091-ILZ014-INZ047-
MNZ060-ONZ431-280800-

...Gateway Observations for Savannah International...

CITY           SKY/WX    TMP DP  RH WIND       PRES   REMARKS
Savannah Arpt  PTCLDY    76  74  93 SW3       29.91F
Atlanta        MOCLDY    74  72  93 S5        29.95F
Charlotte      CLOUDY    76  72  87 CALM      29.91F
Dallas DFW     PTCLDY    87  70  56 S12       29.89S HX  92
Houston Bush   PTCLDY    81  75  82 S7        29.96S
Wash National  PTCLDY    79  74  84 NW8       29.82F
Wash Dulles    CLEAR     74  69  85 NW5       29.83F
Baltimore      MOCLDY    75  72  90 CALM      29.81F
Philadelphia   PTCLDY    72  70  93 CALM      29.83F
Newark         CLOUDY    73  69  87 CALM      29.85S
Laguardia      MOCLDY    74  70  87 S5        29.84F
J F K          MOCLDY    73  72  94 SW3       29.86F
Boston         PTCLDY    68  66  93 W9        29.83S
Pittsburg      MOCLDY    70  70 100 CALM      29.88F FOG
Akron          MOCLDY    69  65  86 NE7       29.88F FOG
Cleveland      MOCLDY    72  66  81 N6        29.90S
Cincinnati     CLOUDY    73  73 100 CALM      29.85F
Columbus       CLOUDY    69  70 100 N7        29.85S
Detroit        MOCLDY    66  60  81 N6        29.94S
Chicago O`Hare PTCLDY    70  61  73 N12       29.94S
Minneapolis    PTCLDY    70  62  76 CALM      30.05R
Indianapolis   CLOUDY    74  73  97 N5        29.85F
Toronto Canada PTCLDY    64  59  82 N8        29.93S

$$




USA.gov is the U.S. government's official web portal to all federal, state and local government web resources and services.